CZ-6A DEB, 56686

Orbit data source: Space-Track

CZ-6A DEB, 56686 is space debris in SSO originally from a launch on Fri, 11 Nov 2022 UTC launched from the Taiyaun Space Center, China (TSC). Debris objects in space refer to the collection of defunct objects orbiting the Earth. Examples of debris include non-operational satellites, rocket bodies, and fragments generated from explosions, collisions, or faulty payload assembly.

Loading next visibility...
Identifier
56686, 2022-151AHN
Orbit
SSO
Country
Flag of CNCN / PRC
Related business
Manufacturer
SAST
Mission
Spacecraft
Bus & Motor
Unknown
Mass
Unknown
Launch date (UTC)
2022-11-11 (4 years ago)
Launch vehicle
Unknown
Launch site
Taiyaun Space Center, China (TSC)
Object type
Payload
Rocket body
Debris
Shape & HBR
Unknown shape, 0.1 m
Radar Cross Section
Small (<0.1 m²)

Expand to show TLE details & history
Last TLE update: 14 hours ago

TLE from 14 hours ago
0 CZ-6A DEB
1 56686U 22151AHN 26264.27122628  .00000101  00000-0  81294-4 0  9992
2 56686  98.8563 264.1434 0046304  71.2980 289.3208 14.09886038173639
Epoch: 2026-09-21T06:30Z
TLE epoch observation values (Epoch: 2026-09-21T06:30:33.950Z)
Latitude
-0.00006°
Longitude
166.3485°
Altitude
851.706 km
Speed
7.432 km/s
True Right ascension
17h 36m 34s
True Declination
0° 00' 00"
Sunlit
Object was in daylight at epoch
Visualization orbit readout
Latitude
Unknown
Longitude
Unknown
Altitude
Unknown
Speed
Unknown
Apparent Right ascension
Unknown
Apparent Declination
Unknown
Sunlit
N/A
Visualization observer readout
Local Sidereal Time
13:49:58
Azimuth
Unknown
Elevation
Unknown
Doppler factor
Unknown
Orbital elements
Apogee altitude
890.442 km
Perigee altitude
823.44 km
Semi-major axis
7,235.078 km
Eccentricity
0.00463
Inclination
98.8563°
RAAN
264.1434°
Arg. of periapsis
71.298°
True anomaly
288.81912°
Mean anomaly
289.3208°
Eccentric anomaly
289.07006°
Mean motion
3.52678 °/min
Orbital period
102.08 mins
BSTAR
0.000081294
Loading maneuver chart data...
Computing Atmospheric mass density...
Loading historical data...
Loading historical data...
Loading historical data...
Loading historical data...
Loading historical data...
Loading historical data...
Loading historical data...

Documentation

Showing up to 5 results
|